Content
SEND FEEDBACK

Daily
Averages
Monthly
Summary
United States of America

MEYERS, CALIFORNIA


Home > North America > United States > California
Elevation: 6470 feet     Latitude: 38 49N     Longitude: 120 01W

WEATHER
 
SELECT A DAY
Number of Records: 176,518;   Date Range: 1/1/95 - 9/30/14
 
SHARE

PRINT THIS DATA

[ ← Previous Day ]
WEATHER ALMANAC - APRIL 18, 2013
[ Next Day → ]
[ °C ]   °F
Weather ElementAverageHighLow
Temperature39.7 °F55.9 °F (3:53 pm)23 °F (5:53 am)
Dewpoint16.9 °F25 °F (7:53 pm)9 °F (9:53 am)
Humidity44.4 %72 % (5:53 am)21 % (2:53 pm)
Barometer30.29 in30.32 in (6:53 am)30.25 in (4:53 pm)
Wind Speed3.8 mph8.1 mph (4:53 pm)
Weather ElementAverage
Visibility10 mi
Wind DirectionENE (60 °)

Weather ElementTotal
Precipitation---
Heating Degree Days25.6 (Base 65)
Averaged from 23 records on April 18, 2013
WEATHER CONDITIONS BREAKOUT
WIND DIRECTION BREAKOUT
WEATHER BY HOUR - APRIL 18, 2013
[ °C ]   °F
Local TimeTemperatureDewpointHumidityBarometerVisibilityWind DirectionWind SpeedGust SpeedPrecipitationEventsConditions
1:53 AM27.0 °F16.0 °F63 %30.29 in10.0 miVariable3.5 mphClear
2:53 AM27.0 °F15.1 °F61 %30.27 in10.0 miWest (260°)4.6 mphClear
3:53 AM27.0 °F14.0 °F58 %30.28 in10.0 miVariable3.5 mphClear
4:53 AM26.1 °F14.0 °F60 %30.27 in10.0 miWSW (240°)4.6 mphClear
5:53 AM23.0 °F15.1 °F72 %30.29 in10.0 miSouth (180°)6.9 mphClear
6:53 AM23.0 °F15.1 °F72 %30.32 in10.0 miSouth (190°)4.6 mphClear
7:53 AM28.9 °F15.1 °F56 %30.32 in10.0 miSouth (180°)5.8 mphClear
8:53 AM37.9 °F12.9 °F36 %30.30 in10.0 miCalmClear
9:53 AM43.0 °F9.0 °F25 %30.29 in10.0 miNE (40°)3.5 mphClear
10:53 AM46.9 °F12.9 °F25 %30.28 in10.0 miNNE (20°)5.8 mphClear
11:53 AM48.9 °F15.1 °F26 %30.28 in10.0 miVariable5.8 mphClear
12:53 PM50.0 °F15.1 °F25 %30.28 in10.0 miVariable4.6 mphClear
1:53 PM52.0 °F14.0 °F22 %30.28 in10.0 miNorth (10°)6.9 mphClear
2:53 PM54.0 °F14.0 °F21 %30.27 in10.0 miVariable4.6 mphClear
3:53 PM55.9 °F16.0 °F21 %30.26 in10.0 miVariable3.5 mphClear
4:53 PM55.0 °F16.0 °F22 %30.25 in10.0 miNNE (30°)8.1 mphClear
5:53 PM54.0 °F16.0 °F22 %30.26 in10.0 miNNE (30°)6.9 mphClear
6:53 PM48.0 °F24.1 °F39 %30.28 in10.0 miCalmClear
7:53 PM43.0 °F25.0 °F49 %30.29 in10.0 miCalmClear
8:53 PM39.9 °F25.0 °F55 %30.30 in10.0 miCalmClear
9:53 PM37.0 °F24.1 °F59 %30.31 in10.0 miCalmClear
10:53 PM34.0 °F23.0 °F64 %30.31 in10.0 miCalmClear
11:53 PM32.0 °F23.0 °F69 %30.31 in10.0 miSSW (200°)4.6 mphClear
Hourly data recorded from KTVL, located miles away from Meyers, California







STORIES FROM OUR PARTNERS